THOR ABLESTAR R/B, 953

Orbit data source: Space-Track

THOR ABLESTAR R/B, 953 is space debris in LEO originally from a launch on Sun, 13 Dec 1964 UTC launched from the Air Force Western Test Range (AFWTR). Debris objects in space refer to the collection of defunct objects orbiting the Earth. Examples of debris include non-operational satellites, rocket bodies, and fragments generated from explosions, collisions, or faulty payload assembly.

Loading next visibility...
Identifier
953, 1964-083A
Orbit
LEO
Country
Flag of USUS
Related business
Manufacturer
Aerojet
Mission
Spacecraft
Bus & Motor
ABLESTAR, Unknown motor
Mass
~600 kg wet, 600 kg dry
Launch date (UTC)
1964-12-13 (61 years ago)
Launch vehicle
Unknown
Launch site
Air Force Western Test Range (AFWTR)
Object type
Payload
Rocket body
Debris
Shape & HBR
Unknown
Radar Cross Section
Large (>1 m²)

Expand to show TLE details & history
Last TLE update: 18 hours ago

TLE from 18 hours ago
0 THOR ABLESTAR R/B
1 00953U 64083A   26037.34900068  .00000059  00000-0  67234-4 0  9996
2 00953  90.0307 192.6257 0033593  98.6157 283.2997 13.58827734 30819
Epoch: 2026-02-06T08:22Z
TLE epoch observation values (Epoch: 2026-02-06T08:22:33.658Z)
Latitude
21.54949°
Longitude
-69.51476°
Altitude
1,037.004 km
Speed
7.338 km/s
True Right ascension
12h 50m 27s
True Declination
21° 26' 12"
Sunlit
Object was in full shadow at epoch
Visualization orbit readout
Latitude
Unknown
Longitude
Unknown
Altitude
Unknown
Speed
Unknown
Apparent Right ascension
Unknown
Apparent Declination
Unknown
Sunlit
N/A
Visualization observer readout
Local Sidereal Time
04:02:17
Azimuth
Unknown
Elevation
Unknown
Doppler factor
Unknown
Orbital elements
Apogee altitude
1,061.902 km
Perigee altitude
1,012.083 km
Semi-major axis
7,415.129 km
Eccentricity
0.00336
Inclination
90.0307°
RAAN
192.6257°
Arg. of periapsis
98.6157°
True anomaly
282.92472°
Mean anomaly
283.2997°
Eccentric anomaly
283.11224°
Mean motion
3.39911 °/min
Orbital period
105.91 mins
BSTAR
0.000067234
Loading maneuver chart data...
Computing Atmospheric mass density...

Documentation

Showing up to 5 results
|